Weather Service Report


148 
ASUS46 KSEW 230820
RWRWA 

WASHINGTON REGIONAL WEATHER ROUNDUP
NATIONAL WEATHER SERVICE SEATTLE WA
100 AM PDT THU SEP 23 2021

NOTE:"FAIR" INDICATES FEW OR NO CLOUDS BELOW 12,000 FEET WITH NO 
SIGNIFICANT WEATHER AND/OR OBSTRUCTIONS TO VISIBILITY.

WAZ507-509-555>559-230900-
SEATTLE, TACOMA, EVERETT, AND VICINITY
  
CITY           SKY/WX    TMP DP  RH WIND       PRES   REMARKS
EVERETT        FOG       54  54 100 N3        30.29S VSB 1/4          
BOEING FIELD   PTCLDY    57  55  93 CALM      30.27F                  
RENTON         MOCLDY    55  52  89 CALM      30.27S                  
SEATAC AIRPORT MOCLDY    58  56  93 SE3       30.28S                  
JBLM-MCCHORD   CLOUDY    57  57 100 W8        30.28R                  
PUYALLUP       CLOUDY    57  57 100 CALM      30.28S                  
BREMERTON      FOG       55  55 100 CALM      30.28S VSB 1/2          
JBLM-FT LEWIS  CLOUDY    58  56  94 SW6       30.27S                  
TACOMA NARROWS CLOUDY    55  55 100 CALM      30.28R                  
$$
 
WAZ001-503-506-510-514-515-230900-
NORTH INTERIOR
  
CITY           SKY/WX    TMP DP  RH WIND       PRES   REMARKS
BELLINGHAM     CLOUDY    58  56  93 S7        30.27R                  
FRIDAY HARBOR  CLOUDY    52  50  93 SE3       30.28S                  
EASTSOUND      MOCLDY    55  54  94 VRB5G12   30.27R                  
PORT ANGELES   PTCLDY    53  50  89 SW3       30.28F                  
EDIZ HOOK      PTSUNNY   53  51  94 W8        30.29S                  
PORT TOWNSEND  FOG       54  54 100 CALM      30.28R VSB 1/4          
NAS WHIDBEY    FOG       51  49  92 CALM      30.33S VSB 1/2          
ARLINGTON      FOG       52  52 100 CALM      30.29S VSB 3/4          
BURLINGTON     CLOUDY    55  54  94 CALM      30.29S                  
$$
 
WAZ020-022-039-040-504-511-512-230900-
SOUTHWEST INTERIOR
  
CITY           SKY/WX    TMP DP  RH WIND       PRES   REMARKS
SHELTON        CLOUDY    56  55  97 W9        30.26S                  
OLYMPIA        CLOUDY    56  54  93 CALM      30.28S                  
CHEHALIS       CLOUDY    57  57 100 CALM      30.29S                  
KELSO          CLOUDY    58  54  86 VRB3      30.29S                  
VANCOUVER      CLEAR     59  55  87 CALM      30.26S                  
SCAPPOOSE, OR  CLEAR     54  52  93 W3        30.26F                  
PORTLAND, OR   CLEAR     61  55  81 N3        30.27S                  
$$
 
WAZ021-516-517-230900-
WASHINGTON COAST
  
CITY           SKY/WX    TMP DP  RH WIND       PRES   REMARKS
FORKS          CLOUDY    44  44 100 CALM      30.31R FOG              
HOQUIAM        PTCLDY    55  52  89 CALM      30.30F                  
ASTORIA, OR    CLEAR     54  51  90 NW6       30.30S                  
$$
 
WAZ019-023-024-040-567>569-230900-
CASCADE MOUNTAINS AND COLUMBIA GORGE
  
CITY           SKY/WX    TMP DP  RH WIND       PRES   REMARKS
STAMPEDE PASS  FOG       46  45  96 VRB5      30.28S VSB 1/4          
TROUTDALE, OR  PTCLDY    62  54  74 CALM      30.26S                  
HOOD RIVER, OR MOSUNNY   57  50  77 CALM      30.22R                  
THE DALLES, OR CLEAR     63  51  65 NW8       30.19F                  
$$

WAZ026-027-041>044-520-521-230900-
EAST SLOPES
  
CITY           SKY/WX    TMP DP  RH WIND       PRES   REMARKS
OMAK           PTCLDY    51  39  63 N8        30.15R                  
WENATCHEE      CLEAR     60  43  53 NW14      30.17R                  
ELLENSBURG     CLEAR     57  44  62 NW18      30.18R                  
YAKIMA         CLEAR     58  50  75 VRB5      30.18R                  
SUNNYSIDE ARPT SUNNY     53  48  82 CALM      30.16S                  
YAKIMA TC      FAIR      55  42  60 CALM      30.17R                  
$$

WAZ028-034-035-230900-
COLUMBIA BASIN
  
CITY           SKY/WX    TMP DP  RH WIND       PRES   REMARKS
EPHRATA        CLEAR     62  42  47 NW15      30.12R                  
MOSES LAKE     CLEAR     57  43  59 W7        30.14S                  
PASCO          CLEAR     58  50  75 E5        30.17R                  
RICHLAND ARPT  SUNNY     60  50  69 SE3       30.17R                  
HERMISTON, OR  CLEAR     61  50  67 SW12      30.19R                  
$$

WAZ036>038-230900-
NORTHEAST WASHINGTON
  
CITY           SKY/WX    TMP DP  RH WIND       PRES   REMARKS
SPOKANE GEIGER MOCLDY    53  42  66 S9        30.15R                  
SPOKANE FELTS  MOCLDY    53  47  79 NE3       30.15R                  
FAIRCHILD AFB  CLEAR     50  44  79 S6        30.15R                  
COEURDALENE,ID MOCLDY    57  44  62 S8        30.17R                  
DEER PARK      MOCLDY    46  40  79 CALM      30.15R                  
$$

WAZ029>033-230900-
SOUTHEAST WASHINGTON
  
CITY           SKY/WX    TMP DP  RH WIND       PRES   REMARKS
PULLMAN        MOCLDY    51  43  74 E5        30.20R                  
LEWISTON, ID   PTCLDY    60  42  51 SE3       30.16R                  
WALLA WALLA    CLEAR     59  48  67 S10       30.19S                  
PENDLETON, OR  CLEAR     50  44  80 E5        30.22R                  
$$
  

Return to Home page


Western Regional Climate Center, wrcc@dri.edu